Lid_Strength_Index
7 11 13 11 10 10 10 11 11 9 8 9 10 10 9 8 8 9 9 9 8 6 4 2 2 1 1 1 1 1 1 1 0 1 1 1 1 1 0 -0 -1 -1 -1 -0
9 12 10 10 10 10 11 12 12 10 9 10 10 10 9 7 8 8 7 8 8 8 7 6 4 2 2 1 1 1 1 1 1 1 1 1 1 0 0 -0 -0 -1 -1 -1
11 9 8 10 10 11 11 12 13 13 11 10 11 12 11 9 8 7 7 6 7 6 6 6 5 4 3 2 1 1 1 1 1 0 0 0 0 0 1 1 0 -0 -1 -0
10 7 9 9 11 10 13 10 10 11 13 15 11 17 12 10 10 9 8 8 6 6 5 5 4 4 3 2 1 1 1 1 0 0 1 1 2 2 1 1 0 0 -0 -0
11 10 10 11 10 9 11 9 10 10 12 12 13 15 14 11 12 10 9 8 7 6 5 5 5 4 3 2 1 1 1 1 0 0 1 1 2 1 1 1 1 1 0 -0
9 7 8 9 8 8 8 9 10 10 12 17 14 14 15 13 12 11 9 9 8 7 6 6 5 4 4 3 3 2 2 2 2 1 1 1 2 2 2 1 2 1 1 0
11 10 8 7 10 9 9 11 17 18 19 18 14 14 15 11 10 10 10 9 8 7 7 7 6 6 6 5 4 3 3 4 3 2 1 1 1 1 1 1 1 1 1 1
15 16 10 8 9 12 12 11 15 19 18 17 14 17 15 11 9 9 9 8 8 7 7 6 6 6 5 4 4 4 3 3 3 2 1 1 1 1 1 1 1 1 1 1
13 13 8 8 8 8 12 15 9 14 14 15 15 14 11 10 10 10 9 9 8 8 8 7 6 5 6 5 5 4 4 3 2 2 1 1 1 1 1 1 1 1 0 1
10 15 10 9 8 8 10 8 15 14 19 19 16 15 14 12 11 10 9 9 8 7 7 7 6 5 4 5 4 4 3 3 3 2 1 1 1 1 1 1 1 1 2 4
9 12 13 10 12 13 12 14 13 12 14 17 17 15 10 10 10 10 9 8 7 7 7 7 6 5 4 4 4 3 3 3 2 1 1 1 1 1 1 2 2 4 4 4
8 12 16 13 9 8 9 12 12 16 17 14 15 14 9 9 9 8 8 7 7 6 6 6 6 5 6 5 4 4 4 4 3 2 2 2 3 3 3 4 4 3 4 5
9 14 17 15 13 11 13 11 11 11 12 15 18 15 8 7 7 7 7 6 6 7 6 5 5 6 5 5 5 5 4 4 4 5 5 5 5 4 4 4 4 5 6 6
8 12 14 17 13 10 13 12 11 13 17 16 15 13 10 8 8 7 7 6 6 6 6 5 5 5 4 4 5 5 5 5 5 5 6 6 6 6 5 6 6 7 8 8
9 14 13 12 12 12 12 12 11 12 12 15 12 11 9 8 7 6 5 6 6 6 6 6 5 4 4 5 5 5 5 6 5 5 6 6 5 6 6 6 7 7 8 8
9 13 12 14 12 12 14 12 11 13 12 12 11 12 7 6 6 6 6 5 6 6 5 5 4 4 4 4 5 5 5 6 5 6 6 6 6 6 7 7 8 8 9 9
10 12 14 16 12 13 16 13 11 11 10 10 14 10 7 7 7 6 6 5 5 5 4 4 4 3 3 3 4 5 5 5 6 6 6 7 7 8 8 8 9 9 9 10
11 12 12 15 13 20 12 9 10 11 10 9 9 8 7 7 6 5 5 5 5 5 4 4 3 3 3 4 5 5 5 6 6 7 7 7 9 9 10 10 10 10 10 11
8 11 14 16 16 13 12 11 11 12 12 9 9 8 7 6 6 6 4 4 4 4 3 3 4 7 7 9 9 8 7 8 9 10 10 10 9 10 10 11 11 11 11 12
8 9 13 14 17 19 12 9 8 8 13 8 8 8 7 6 10 9 5 4 5 6 8 9 10 10 11 11 10 10 12 13 14 14 14 14 12 11 11 11 12 12 12 13
13 13 15 15 16 14 8 8 7 14 13 7 7 7 7 8 7 5 7 8 10 11 12 12 13 14 14 13 12 14 15 17 16 16 15 15 14 15 14 14 14 14 14 14
13 14 14 14 16 17 7 7 10 8 6 6 6 5 6 6 6 7 9 10 11 12 14 14 15 17 17 16 16 17 19 18 17 17 17 17 17 16 16 16 15 15 15 15
13 10 12 11 11 7 6 7 5 5 6 6 6 5 6 7 7 8 10 12 13 14 15 16 17 19 19 19 18 19 20 19 19 18 19 18 18 18 17 17 17 16 16 16
9 7 10 10 8 7 6 5 5 4 5 6 8 9 9 9 9 10 12 13 14 16 17 17 18 19 21 21 21 21 21 20 20 19 19 19 19 18 18 17 17 17 17 17
8 8 9 9 7 6 6 5 5 6 7 9 10 12 11 10 11 11 14 15 16 17 18 18 20 21 22 22 23 23 22 22 20 20 20 19 19 19 19 19 19 19 18 18
7 9 10 11 7 7 6 7 9 9 10 11 11 12 13 12 13 14 16 17 18 19 19 20 21 22 23 23 23 23 23 23 22 20 20 22 20 20 20 20 19 19 19 18